Time,TemperatureF,DewpointF,PressureIn,WindDirection,WindDirectionDegrees,WindSpeedMPH,WindSpeedGustMPH,Humidity,HourlyPrecipIn,Conditions,Clouds,dailyrainin,SoftwareType,DateUTC
2013-02-27 00:01:00,56.0,-99.9,30.10,North,358,1.0,2.0,-999,-99.99,,,-99.99,,2013-02-27 08:01:00,
2013-02-27 00:11:00,56.0,-99.9,30.10,North,358,1.0,2.0,-999,-99.99,,,-99.99,,2013-02-27 08:11:00,
2013-02-27 00:22:00,56.0,-99.9,30.10,North,358,1.0,2.0,-999,-99.99,,,-99.99,,2013-02-27 08:22:00,
2013-02-27 00:32:00,55.0,-99.9,30.13,NNE,26,2.0,3.0,-999,-99.99,,,-99.99,,2013-02-27 08:32:00,
2013-02-27 00:42:00,55.0,-99.9,30.13,NNE,26,2.0,3.0,-999,-99.99,,,-99.99,,2013-02-27 08:42:00,
2013-02-27 00:53:00,55.0,-99.9,30.12,NE,35,1.0,3.0,-999,-99.99,,,-99.99,,2013-02-27 08:53:00,
2013-02-27 01:02:00,55.0,-99.9,30.11,NNE,23,2.0,3.0,-999,-99.99,,,-99.99,,2013-02-27 09:02:00,
2013-02-27 01:12:00,55.0,-99.9,30.11,NNE,23,2.0,3.0,-999,-99.99,,,-99.99,,2013-02-27 09:12:00,
2013-02-27 01:22:00,54.0,-99.9,30.11,NNE,22,2.0,3.0,-999,-99.99,,,-99.99,,2013-02-27 09:22:00,
2013-02-27 01:32:00,54.0,-99.9,30.11,ESE,110,3.0,8.0,-999,-99.99,,,-99.99,,2013-02-27 09:32:00,
2013-02-27 01:42:00,54.0,-99.9,30.11,ESE,110,3.0,8.0,-999,-99.99,,,-99.99,,2013-02-27 09:42:00,
2013-02-27 01:52:00,54.0,-99.9,30.10,SSW,213,1.0,8.0,-999,-99.99,,,-99.99,,2013-02-27 09:52:00,
2013-02-27 02:01:00,53.0,-99.9,30.11,WNW,286,1.0,2.0,-999,-99.99,,,-99.99,,2013-02-27 10:01:00,
2013-02-27 02:12:00,53.0,-99.9,30.11,WNW,286,1.0,2.0,-999,-99.99,,,-99.99,,2013-02-27 10:12:00,
2013-02-27 02:22:00,53.0,-99.9,30.11,WNW,286,1.0,2.0,-999,-99.99,,,-99.99,,2013-02-27 10:22:00,
2013-02-27 02:32:00,53.0,-99.9,30.11,WNW,286,1.0,2.0,-999,-99.99,,,-99.99,,2013-02-27 10:32:00,
2013-02-27 02:42:00,53.0,-99.9,30.11,WNW,286,1.0,2.0,-999,-99.99,,,-99.99,,2013-02-27 10:42:00,
2013-02-27 02:53:00,53.0,-99.9,30.12,South,173,1.0,2.0,-999,-99.99,,,-99.99,,2013-02-27 10:53:00,
2013-02-27 03:03:00,52.0,-99.9,30.12,North,4,1.0,1.0,-999,-99.99,,,-99.99,,2013-02-27 11:03:00,
2013-02-27 03:12:00,52.0,-99.9,30.12,North,4,1.0,1.0,-999,-99.99,,,-99.99,,2013-02-27 11:12:00,
2013-02-27 03:22:00,52.0,-99.9,30.11,NW,304,1.0,1.0,-999,-99.99,,,-99.99,,2013-02-27 11:22:00,
2013-02-27 03:32:00,51.0,-99.9,30.13,North,357,0.0,1.0,-999,-99.99,,,-99.99,,2013-02-27 11:32:00,
2013-02-27 03:42:00,51.0,-99.9,30.13,North,357,0.0,1.0,-999,-99.99,,,-99.99,,2013-02-27 11:42:00,
2013-02-27 03:52:00,51.0,-99.9,30.13,North,357,0.0,1.0,-999,-99.99,,,-99.99,,2013-02-27 11:52:00,
2013-02-27 04:02:00,51.0,-99.9,30.13,North,351,2.0,2.0,-999,-99.99,,,-99.99,,2013-02-27 12:02:00,
2013-02-27 04:13:00,51.0,-99.9,30.13,North,351,2.0,2.0,-999,-99.99,,,-99.99,,2013-02-27 12:13:00,
2013-02-27 04:22:00,51.0,-99.9,30.13,North,351,2.0,2.0,-999,-99.99,,,-99.99,,2013-02-27 12:22:00,
2013-02-27 04:33:00,51.0,-99.9,30.12,NNW,348,2.0,2.0,-999,-99.99,,,-99.99,,2013-02-27 12:33:00,
2013-02-27 04:42:00,51.0,-99.9,30.12,NNW,348,2.0,2.0,-999,-99.99,,,-99.99,,2013-02-27 12:42:00,
2013-02-27 04:53:00,50.0,-99.9,30.13,North,353,1.0,3.0,-999,-99.99,,,-99.99,,2013-02-27 12:53:00,
2013-02-27 05:03:00,50.0,-99.9,30.15,NW,317,2.0,3.0,-999,-99.99,,,-99.99,,2013-02-27 13:03:00,
2013-02-27 05:12:00,50.0,-99.9,30.15,NW,317,2.0,3.0,-999,-99.99,,,-99.99,,2013-02-27 13:12:00,
2013-02-27 05:22:00,50.0,-99.9,30.15,NW,317,2.0,3.0,-999,-99.99,,,-99.99,,2013-02-27 13:22:00,
2013-02-27 05:32:00,49.0,-99.9,30.15,NW,317,1.0,2.0,-999,-99.99,,,-99.99,,2013-02-27 13:32:00,
2013-02-27 05:42:00,49.0,-99.9,30.15,NW,317,1.0,2.0,-999,-99.99,,,-99.99,,2013-02-27 13:42:00,
2013-02-27 05:53:00,49.0,-99.9,30.15,NW,311,0.0,1.0,-999,-99.99,,,-99.99,,2013-02-27 13:53:00,
2013-02-27 06:02:00,49.0,-99.9,30.15,NNW,327,2.0,3.0,-999,-99.99,,,-99.99,,2013-02-27 14:02:00,
2013-02-27 06:12:00,49.0,-99.9,30.15,NNW,327,2.0,3.0,-999,-99.99,,,-99.99,,2013-02-27 14:12:00,
2013-02-27 06:22:00,49.0,-99.9,30.16,NNW,329,1.0,4.0,-999,-99.99,,,-99.99,,2013-02-27 14:22:00,
2013-02-27 06:32:00,48.0,-99.9,30.14,WNW,300,1.0,3.0,-999,-99.99,,,-99.99,,2013-02-27 14:32:00,
2013-02-27 06:42:00,48.0,-99.9,30.14,WNW,300,1.0,3.0,-999,-99.99,,,-99.99,,2013-02-27 14:42:00,
2013-02-27 06:53:00,48.0,-99.9,30.15,WNW,286,0.0,2.0,-999,-99.99,,,-99.99,,2013-02-27 14:53:00,
2013-02-27 07:02:00,48.0,-99.9,30.16,NW,314,1.0,3.0,-999,-99.99,,,-99.99,,2013-02-27 15:02:00,
2013-02-27 07:12:00,48.0,-99.9,30.16,NW,314,1.0,3.0,-999,-99.99,,,-99.99,,2013-02-27 15:12:00,
2013-02-27 07:23:00,48.0,-99.9,30.16,NW,314,1.0,3.0,-999,-99.99,,,-99.99,,2013-02-27 15:23:00,
2013-02-27 07:32:00,48.0,-99.9,30.20,North,352,1.0,2.0,-999,-99.99,,,-99.99,,2013-02-27 15:32:00,
2013-02-27 07:42:00,48.0,-99.9,30.20,North,352,1.0,2.0,-999,-99.99,,,-99.99,,2013-02-27 15:42:00,
2013-02-27 07:52:00,48.0,-99.9,30.19,NW,306,1.0,3.0,-999,-99.99,,,-99.99,,2013-02-27 15:52:00,
2013-02-27 08:02:00,49.0,-99.9,30.19,NW,310,2.0,4.0,-999,-99.99,,,-99.99,,2013-02-27 16:02:00,
2013-02-27 08:12:00,49.0,-99.9,30.19,NW,310,2.0,4.0,-999,-99.99,,,-99.99,,2013-02-27 16:12:00,
2013-02-27 08:22:00,50.0,-99.9,30.19,NW,326,2.0,4.0,-999,-99.99,,,-99.99,,2013-02-27 16:22:00,
2013-02-27 08:32:00,51.0,-99.9,30.19,North,358,2.0,4.0,-999,-99.99,,,-99.99,,2013-02-27 16:32:00,
2013-02-27 08:42:00,51.0,-99.9,30.19,North,358,2.0,4.0,-999,-99.99,,,-99.99,,2013-02-27 16:42:00,
2013-02-27 08:52:00,51.0,-99.9,30.19,North,358,2.0,4.0,-999,-99.99,,,-99.99,,2013-02-27 16:52:00,
2013-02-27 09:02:00,55.0,-99.9,30.20,North,350,2.0,3.0,-999,-99.99,,,-99.99,,2013-02-27 17:02:00,
2013-02-27 09:11:00,55.0,-99.9,30.20,North,350,2.0,3.0,-999,-99.99,,,-99.99,,2013-02-27 17:11:00,
2013-02-27 09:22:00,55.0,-99.9,30.20,North,350,2.0,3.0,-999,-99.99,,,-99.99,,2013-02-27 17:22:00,
2013-02-27 09:32:00,58.0,-99.9,30.23,NW,325,2.0,3.0,-999,-99.99,,,-99.99,,2013-02-27 17:32:00,
2013-02-27 09:42:00,58.0,-99.9,30.23,NW,325,2.0,3.0,-999,-99.99,,,-99.99,,2013-02-27 17:42:00,
2013-02-27 09:52:00,59.0,-99.9,30.21,NW,305,1.0,3.0,-999,-99.99,,,-99.99,,2013-02-27 17:52:00,
2013-02-27 10:02:00,62.0,-99.9,30.20,NNE,29,2.0,5.0,-999,-99.99,,,-99.99,,2013-02-27 18:02:00,
2013-02-27 10:11:00,62.0,-99.9,30.20,NNE,29,2.0,5.0,-999,-99.99,,,-99.99,,2013-02-27 18:11:00,
2013-02-27 10:22:00,62.0,-99.9,30.21,ENE,73,5.0,6.0,-999,-99.99,,,-99.99,,2013-02-27 18:22:00,
2013-02-27 10:32:00,63.0,-99.9,30.22,ENE,57,4.0,10.0,-999,-99.99,,,-99.99,,2013-02-27 18:32:00,
2013-02-27 10:42:00,63.0,-99.9,30.22,ENE,57,4.0,10.0,-999,-99.99,,,-99.99,,2013-02-27 18:42:00,
2013-02-27 10:52:00,65.0,-99.9,30.22,NE,48,3.0,5.0,-999,-99.99,,,-99.99,,2013-02-27 18:52:00,
2013-02-27 11:02:00,66.0,-99.9,30.21,East,84,1.0,7.0,-999,-99.99,,,-99.99,,2013-02-27 19:02:00,
2013-02-27 11:12:00,66.0,-99.9,30.21,East,84,1.0,7.0,-999,-99.99,,,-99.99,,2013-02-27 19:12:00,
2013-02-27 11:22:00,67.0,-99.9,30.21,North,2,2.0,7.0,-999,-99.99,,,-99.99,,2013-02-27 19:22:00,
2013-02-27 11:32:00,68.0,-99.9,30.21,NNE,32,3.0,7.0,-999,-99.99,,,-99.99,,2013-02-27 19:32:00,
2013-02-27 11:42:00,68.0,-99.9,30.21,NNE,32,3.0,7.0,-999,-99.99,,,-99.99,,2013-02-27 19:42:00,
2013-02-27 11:52:00,68.0,-99.9,30.21,NNE,31,3.0,6.0,-999,-99.99,,,-99.99,,2013-02-27 19:52:00,
2013-02-27 12:02:00,69.0,-99.9,30.21,WNW,298,3.0,6.0,-999,-99.99,,,-99.99,,2013-02-27 20:02:00,
2013-02-27 12:12:00,69.0,-99.9,30.21,WNW,298,3.0,6.0,-999,-99.99,,,-99.99,,2013-02-27 20:12:00,
2013-02-27 12:22:00,70.0,-99.9,30.21,SW,230,6.0,8.0,-999,-99.99,,,-99.99,,2013-02-27 20:22:00,
2013-02-27 12:32:00,72.0,-99.9,30.21,NW,313,3.0,8.0,-999,-99.99,,,-99.99,,2013-02-27 20:32:00,
2013-02-27 12:42:00,72.0,-99.9,30.21,NW,313,3.0,8.0,-999,-99.99,,,-99.99,,2013-02-27 20:42:00,
2013-02-27 12:53:00,72.0,-99.9,30.19,WSW,237,3.0,4.0,-999,-99.99,,,-99.99,,2013-02-27 20:53:00,
2013-02-27 13:02:00,72.0,-99.9,30.19,NE,55,2.0,10.0,-999,-99.99,,,-99.99,,2013-02-27 21:02:00,
2013-02-27 13:11:00,72.0,-99.9,30.19,NE,55,2.0,10.0,-999,-99.99,,,-99.99,,2013-02-27 21:11:00,
2013-02-27 13:22:00,72.0,-99.9,30.19,ESE,115,2.0,3.0,-999,-99.99,,,-99.99,,2013-02-27 21:22:00,
2013-02-27 13:32:00,73.0,-99.9,30.18,WNW,286,2.0,4.0,-999,-99.99,,,-99.99,,2013-02-27 21:32:00,
2013-02-27 13:42:00,73.0,-99.9,30.18,WNW,286,2.0,4.0,-999,-99.99,,,-99.99,,2013-02-27 21:42:00,
2013-02-27 13:52:00,73.0,-99.9,30.17,WNW,284,5.0,10.0,-999,-99.99,,,-99.99,,2013-02-27 21:52:00,
2013-02-27 14:02:00,73.0,-99.9,30.18,WNW,284,4.0,7.0,-999,-99.99,,,-99.99,,2013-02-27 22:02:00,
2013-02-27 14:12:00,73.0,-99.9,30.18,WNW,284,4.0,7.0,-999,-99.99,,,-99.99,,2013-02-27 22:12:00,
2013-02-27 14:22:00,73.0,-99.9,30.18,WNW,284,4.0,7.0,-999,-99.99,,,-99.99,,2013-02-27 22:22:00,
2013-02-27 14:32:00,74.0,-99.9,30.17,West,277,4.0,8.0,-999,-99.99,,,-99.99,,2013-02-27 22:32:00,
2013-02-27 14:42:00,74.0,-99.9,30.17,West,277,4.0,8.0,-999,-99.99,,,-99.99,,2013-02-27 22:42:00,
2013-02-27 14:52:00,74.0,-99.9,30.17,West,277,4.0,8.0,-999,-99.99,,,-99.99,,2013-02-27 22:52:00,
2013-02-27 15:02:00,75.0,-99.9,30.18,SSW,206,5.0,16.0,-999,-99.99,,,-99.99,,2013-02-27 23:02:00,
2013-02-27 15:12:00,75.0,-99.9,30.18,SSW,206,5.0,16.0,-999,-99.99,,,-99.99,,2013-02-27 23:12:00,
2013-02-27 15:22:00,75.0,-99.9,30.18,SSW,210,6.0,10.0,-999,-99.99,,,-99.99,,2013-02-27 23:22:00,
2013-02-27 15:32:00,75.0,-99.9,30.18,SW,218,6.0,11.0,-999,-99.99,,,-99.99,,2013-02-27 23:32:00,
2013-02-27 15:42:00,75.0,-99.9,30.18,SW,218,6.0,11.0,-999,-99.99,,,-99.99,,2013-02-27 23:42:00,
2013-02-27 15:53:00,75.0,-99.9,30.18,SW,225,3.0,10.0,-999,-99.99,,,-99.99,,2013-02-27 23:53:00,
2013-02-27 16:02:00,74.0,-99.9,30.19,West,264,7.0,11.0,-999,-99.99,,,-99.99,,2013-02-28 00:02:00,
2013-02-27 16:13:00,74.0,-99.9,30.19,West,264,7.0,11.0,-999,-99.99,,,-99.99,,2013-02-28 00:13:00,
2013-02-27 16:22:00,74.0,-99.9,30.19,SW,233,7.0,11.0,-999,-99.99,,,-99.99,,2013-02-28 00:22:00,
2013-02-27 16:32:00,74.0,-99.9,30.21,West,259,10.0,14.0,-999,-99.99,,,-99.99,,2013-02-28 00:32:00,
2013-02-27 16:42:00,74.0,-99.9,30.21,West,259,10.0,14.0,-999,-99.99,,,-99.99,,2013-02-28 00:42:00,
2013-02-27 16:52:00,73.0,-99.9,30.21,West,274,9.0,15.0,-999,-99.99,,,-99.99,,2013-02-28 00:52:00,
2013-02-27 17:01:00,72.0,-99.9,30.21,WNW,289,6.0,14.0,-999,-99.99,,,-99.99,,2013-02-28 01:01:00,
2013-02-27 17:11:00,72.0,-99.9,30.21,WNW,289,6.0,14.0,-999,-99.99,,,-99.99,,2013-02-28 01:11:00,
2013-02-27 17:22:00,71.0,-99.9,30.20,WNW,288,6.0,15.0,-999,-99.99,,,-99.99,,2013-02-28 01:22:00,
2013-02-27 17:32:00,70.0,-99.9,30.22,WNW,292,5.0,11.0,-999,-99.99,,,-99.99,,2013-02-28 01:32:00,
2013-02-27 17:42:00,70.0,-99.9,30.22,WNW,292,5.0,11.0,-999,-99.99,,,-99.99,,2013-02-28 01:42:00,
2013-02-27 17:52:00,69.0,-99.9,30.22,WNW,287,4.0,10.0,-999,-99.99,,,-99.99,,2013-02-28 01:52:00,
2013-02-27 18:01:00,69.0,-99.9,30.22,WNW,287,4.0,10.0,-999,-99.99,,,-99.99,,2013-02-28 02:01:00,
2013-02-27 18:11:00,69.0,-99.9,30.22,WNW,287,4.0,10.0,-999,-99.99,,,-99.99,,2013-02-28 02:11:00,
2013-02-27 18:22:00,69.0,-99.9,30.22,WNW,287,4.0,10.0,-999,-99.99,,,-99.99,,2013-02-28 02:22:00,
2013-02-27 18:32:00,68.0,-99.9,30.21,WNW,295,1.0,1.0,-999,-99.99,,,-99.99,,2013-02-28 02:32:00,
2013-02-27 18:42:00,68.0,-99.9,30.21,WNW,295,1.0,1.0,-999,-99.99,,,-99.99,,2013-02-28 02:42:00,
2013-02-27 18:52:00,68.0,-99.9,30.21,WNW,295,1.0,1.0,-999,-99.99,,,-99.99,,2013-02-28 02:52:00,
2013-02-27 19:02:00,68.0,-99.9,30.22,SW,215,1.0,1.0,-999,-99.99,,,-99.99,,2013-02-28 03:02:00,
2013-02-27 19:11:00,68.0,-99.9,30.22,SW,215,1.0,1.0,-999,-99.99,,,-99.99,,2013-02-28 03:11:00,
2013-02-27 19:22:00,68.0,-99.9,30.22,SW,215,1.0,1.0,-999,-99.99,,,-99.99,,2013-02-28 03:22:00,
2013-02-27 19:32:00,67.0,-99.9,30.24,SW,221,0.0,1.0,-999,-99.99,,,-99.99,,2013-02-28 03:32:00,
2013-02-27 19:42:00,67.0,-99.9,30.24,SW,221,0.0,1.0,-999,-99.99,,,-99.99,,2013-02-28 03:42:00,
2013-02-27 19:52:00,66.0,-99.9,30.24,ESE,109,2.0,3.0,-999,-99.99,,,-99.99,,2013-02-28 03:52:00,
2013-02-27 20:02:00,66.0,-99.9,30.23,ENE,68,2.0,3.0,-999,-99.99,,,-99.99,,2013-02-28 04:02:00,
2013-02-27 20:11:00,66.0,-99.9,30.23,ENE,68,2.0,3.0,-999,-99.99,,,-99.99,,2013-02-28 04:11:00,
2013-02-27 20:22:00,66.0,-99.9,30.23,ENE,68,2.0,3.0,-999,-99.99,,,-99.99,,2013-02-28 04:22:00,
2013-02-27 20:32:00,65.0,-99.9,30.26,East,96,1.0,3.0,-999,-99.99,,,-99.99,,2013-02-28 04:32:00,
2013-02-27 20:42:00,65.0,-99.9,30.26,East,96,1.0,3.0,-999,-99.99,,,-99.99,,2013-02-28 04:42:00,
2013-02-27 20:52:00,64.0,-99.9,30.26,SSW,200,2.0,2.0,-999,-99.99,,,-99.99,,2013-02-28 04:52:00,
2013-02-27 21:02:00,64.0,-99.9,30.27,West,270,0.0,0.0,-999,-99.99,,,-99.99,,2013-02-28 05:02:00,
2013-02-27 21:22:00,64.0,-99.9,30.28,East,90,0.0,1.0,-999,-99.99,,,-99.99,,2013-02-28 05:22:00,
2013-02-27 21:32:00,63.0,-99.9,30.28,WSW,247,0.0,1.0,-999,-99.99,,,-99.99,,2013-02-28 05:32:00,
2013-02-27 21:43:00,63.0,-99.9,30.28,WSW,247,0.0,1.0,-999,-99.99,,,-99.99,,2013-02-28 05:43:00,
2013-02-27 21:52:00,63.0,-99.9,30.28,WSW,247,0.0,1.0,-999,-99.99,,,-99.99,,2013-02-28 05:52:00,
2013-02-27 22:02:00,63.0,-99.9,30.28,WSW,247,0.0,1.0,-999,-99.99,,,-99.99,,2013-02-28 06:02:00,
2013-02-27 22:32:00,61.0,-99.9,30.27,SW,227,0.0,1.0,-999,-99.99,,,-99.99,,2013-02-28 06:32:00,
2013-02-27 22:42:00,61.0,-99.9,30.27,SW,227,0.0,1.0,-999,-99.99,,,-99.99,,2013-02-28 06:42:00,
2013-02-27 22:52:00,61.0,-99.9,30.27,SW,227,0.0,1.0,-999,-99.99,,,-99.99,,2013-02-28 06:52:00,
2013-02-27 23:01:00,60.0,-99.9,30.25,NNW,335,1.0,1.0,-999,-99.99,,,-99.99,,2013-02-28 07:01:00,
2013-02-27 23:32:00,59.0,-99.9,30.27,West,275,0.0,1.0,-999,-99.99,,,-99.99,,2013-02-28 07:32:00,
2013-02-27 23:42:00,59.0,-99.9,30.27,West,275,0.0,1.0,-999,-99.99,,,-99.99,,2013-02-28 07:42:00,
2013-02-27 23:52:00,59.0,-99.9,30.26,West,261,2.0,3.0,-999,-99.99,,,-99.99,,2013-02-28 07:52:00,